sat.trackr.live / text

‹ back to catalog

STARLINK-37667

NORAD 69045 · 2026-101W

PAYLOAD ACTIVE UNKNOWN

§ Identity

Operator
Country
US
Launch date
2026-05-06
Launch site
AFWTR
Launch vehicle
Mass (kg)
RCS (m²)

Purposes: comms

External: N2YO · Heavens-Above · Gunter

§ Orbital elements

Epoch: 2026-05-25T03:13:17.084064Z

Period
91.42 min
Inclination
97.2846°
Eccentricity
0.0001302
Mean motion
15.75220706 rev/d
Perigee alt
343.1 km
Apogee alt
344.9 km
Semi-major
6,722.1 km
B*
6.3453e-4
RAAN
359.9176°
Arg perigee
86.6000°
Mean anomaly
273.5414°
Rev number
301

§ Raw data

STARLINK-376671 69045U 26101W   26145.13422551  .00095708  00000+0  63453-3 0  99972 69045  97.2846 359.9176 0001302  86.6000 273.5414 15.75220706  3013

JSON: /api/v1/satellites/69045 · /tle

For live sub-satellite position, see the globe view (requires WebGL).

§ Visibility from observer

Set your observer location to see the next 7 days of passes ≥ 10°. The values pass through the URL so the page stays shareable.

No JS? Fill the form by hand. The geolocation button needs JavaScript.